Find Starlink 31428

NORAD ID: 59367 Int'l Des: 2024-060 Owner: SPXS Country: US Constellation: starlink operational
LEOCIRCULAR

Current View

Loading 3D Globe...

About Starlink 31428

Starlink 31428 (NORAD 59367) is a starlink constellation satellite (v2 mini) launched Mar 31, 2024 by SPXS of US. It operates in LEO, CIRCULAR orbit with a mass of 730.00 kg.

Upcoming Passes

Passes for default location (London). Set your location on the main map for personalized predictions.

Altitude History

Loading altitude history...

Two-Line Element Set

1 59367U 24060V 26263.99033526 .00000275 00000-0 19532-4 0 9996
2 59367 43.0027 236.7200 0001161 263.8613 96.2106 15.27574323139934
Epoch: Sep 20, 2026 • Age: 12 hours

Current Status

Altitude 495.5 km
Apogee / Perigee N/A
Velocity 7.62 km/s
Sub-Earth Point -42.85°S, 27.43°W
Launch Date Mar 31, 2024
Age 2.4 years
Type internet

Technical Details

Classification Payload
Mass 730.00 kg
Dry Mass 700.00 kg
Length 0.30 m
Span 29.00 m
Shape ? Box + pan
Manufacturer SPXS
Bus Type Starlink V2M
Phase Status In Orbit
Owner/State SPXS/US

Most Searched